Location: *
(32.8140°S, 174.6161°E)
Time: 01:24:41
(UTC+00:00)

NOSS 3-4 (C) - Pass Details

Date: 10 December 2019
Orbit: 904 x 1309 km, 63.4° (Epoch: 19 January)

Event Time Altitude Azimuth Distance (km) Brightness Sun altitude
Exits shadow 15:12:56 22° 352° (N) 2,534 5.2 -19.8°
Maximum altitude 15:18:28 61° 65° (ENE) 1,458 4.4 -19.0°
Drops below altitude 10° 15:26:20 10° 142° (SE) 3,266 7.5 -17.9°
Sets 15:29:06 0° 145° (SE) 4,197 8.4 -17.4°
